Moses Lake, WA
on Tuesday, December 11, 2012

Tuesday
Previous Day Next Day
Daily Summary
 ActualAverageRecord
Temperature
Mean Temperature °F 29°F  
Max Temperature 35°F 35°F 53°F (1999)
Min Temperature 30°F 23°F 6°F (2005)
Degree Days
Heating Degree Days 32 36  
Month to date heating degree days 277 383  
Since 1 July heating degree days 1545 1844  
Cooling Degree Days 0 0  
Month to date cooling degree days 0 0  
Year to date cooling degree days 719 615  
Moisture
Dew Point 30°F   
Average Humidity 95    
Maximum Humidity 100    
Minimum Humidity 89    
Precipitation
Precipitation 0.08 in 0.03 in 0.35 in (2010)
Month to date precipitation 0.70 0.40  
Year to date precipitation 8.44 8.07  
Wind
Wind Speed 3 mph   
Max Wind Speed 7 mph   
Max Gust Speed 8 mph   
Visibility 2 miles   
Events Fog , Rain   

Key: T is trace of precipitation, MM is missing value
Source: NWS Daily Summary
Time(PST)TemperatureDew PointHumidity Pressure Visibility Wind DirectionWind SpeedGust SpeedPrecipitationEvents Conditions
12:02 AM 30.2°F 28.4°F 93% 30.01 in 1.5 miles Calm Calm - N/A   Overcast
12:15 AM 30.2°F 28.4°F 93% 30.00 in 0.5 miles Calm Calm - N/A Fog Light Freezing Fog
12:52 AM 30.0°F 28.9°F 96% 30.02 in 0.8 miles Calm Calm - N/A   Mist
1:00 AM 30.2°F 28.4°F 93% 29.98 in 1.8 miles Calm Calm - N/A   Overcast
1:04 AM 30.2°F 28.4°F 93% 29.98 in 3.0 miles Calm Calm - N/A   Overcast
1:10 AM 30.2°F 28.4°F 93% 29.98 in 1.8 miles North 3.5 mph - N/A   Overcast
1:52 AM 30.0°F 28.0°F 92% 30.00 in 1.0 miles North 3.5 mph - N/A   Mist
2:29 AM 30.2°F 28.4°F 93% 29.92 in 0.5 miles Calm Calm - N/A Fog Light Freezing Fog
2:52 AM 30.0°F 28.9°F 96% 29.94 in 0.2 miles Calm Calm - N/A Fog Light Freezing Fog
3:08 AM 30.2°F 28.4°F 93% 29.89 in 0.5 miles Calm Calm - N/A Fog Light Freezing Fog
3:29 AM 30.2°F 28.4°F 93% 29.88 in 0.2 miles North 4.6 mph - N/A Fog Light Freezing Fog
3:52 AM 30.0°F 28.0°F 92% 29.91 in 0.2 miles North 4.6 mph - N/A Fog Light Freezing Fog
4:24 AM 30.2°F 28.4°F 93% 29.85 in 0.5 miles North 4.6 mph - N/A Fog Light Freezing Fog
4:40 AM 30.2°F 28.4°F 93% 29.83 in 0.2 miles NE 3.5 mph - N/A Fog Light Freezing Fog
4:52 AM 30.0°F 28.0°F 92% 29.86 in 0.2 miles NE 4.6 mph - N/A Fog Light Freezing Fog
5:35 AM 30.2°F 28.4°F 93% 29.81 in 0.5 miles North 8.1 mph - N/A Fog Light Freezing Fog
5:52 AM 30.0°F 28.0°F 92% 29.85 in 0.5 miles North 8.1 mph - N/A Fog Light Freezing Fog
6:35 AM 30.2°F 28.4°F 93% 29.79 in 1.0 miles North 4.6 mph - N/A   Mist
6:44 AM 30.2°F 28.4°F 93% 29.79 in 0.8 miles North 4.6 mph - N/A   Mist
6:52 AM 30.0°F 28.9°F 96% 29.82 in 0.8 miles NNE 3.5 mph - N/A   Mist
7:00 AM 30.2°F 28.4°F 93% 29.78 in 1.0 miles NNE 3.5 mph - N/A   Mist
7:09 AM 30.2°F 28.4°F 93% 29.77 in 0.8 miles Calm Calm - N/A   Mist
7:52 AM 30.9°F 30.0°F 96% 29.79 in 0.5 miles Calm Calm - N/A Fog Light Freezing Fog
8:52 AM 30.9°F 28.9°F 92% 29.76 in 0.5 miles NNW 3.5 mph - N/A Fog Light Freezing Fog
8:59 AM 30.2°F 28.4°F 93% 29.72 in 0.2 miles NNW 3.5 mph - N/A Fog Light Freezing Fog
9:52 AM 30.9°F 30.0°F 96% 29.74 in 0.2 miles Calm Calm - N/A Fog Light Freezing Fog
10:12 AM 30.2°F 30.2°F 100% 29.70 in 0.5 miles North 3.5 mph - N/A Fog Light Freezing Fog
10:47 AM 30.2°F 28.4°F 93% 29.69 in 1.0 miles North 6.9 mph - N/A   Overcast
10:52 AM 30.2°F 28.4°F 93% 29.68 in 0.2 miles North 5.8 mph - N/A Fog Light Freezing Fog
11:30 AM 32.0°F 30.2°F 93% 29.67 in 1.5 miles NNE 6.9 mph - N/A   Overcast
11:52 AM 32.0°F 30.9°F 96% 29.68 in 4.0 miles East 3.5 mph - N/A   Overcast
11:59 AM 32.0°F 30.2°F 93% 29.65 in 5.0 miles NE 4.6 mph - N/A   Overcast
12:52 PM 34.0°F 32.0°F 92% 29.64 in 5.0 miles NNE 4.6 mph - N/A   Mist
1:52 PM 34.0°F 33.1°F 96% 29.63 in 5.0 miles Calm Calm - N/A   Overcast
2:52 PM 35.1°F 32.0°F 89% 29.61 in 6.0 miles Calm Calm - N/A   Overcast
3:52 PM 34.0°F 32.0°F 92% 29.61 in 4.0 miles WNW 4.6 mph - N/A   Overcast
4:32 PM 33.8°F 32.0°F 93% 29.58 in 5.0 miles NW 5.8 mph - N/A   Overcast
4:52 PM 34.0°F 32.0°F 92% 29.61 in 5.0 miles Calm Calm - N/A   Overcast
5:52 PM 34.0°F 32.0°F 92% 29.60 in 6.0 miles SE 4.6 mph - N/A   Overcast
6:00 PM 33.8°F 30.2°F 87% 29.57 in 4.0 miles SE 4.6 mph - N/A   Overcast
6:52 PM 34.0°F 32.0°F 92% 29.60 in 5.0 miles WNW 4.6 mph - N/A   Overcast
7:52 PM 34.0°F 33.1°F 96% 29.61 in 6.0 miles Calm Calm - N/A   Overcast
8:48 PM 33.8°F 32.0°F 93% 29.58 in 4.0 miles NNW 3.5 mph - 0.03 in Rain Light Rain
8:52 PM 33.1°F 32.0°F 96% 29.61 in 4.0 miles NNW 4.6 mph - 0.03 in Rain Light Rain
9:45 PM 33.8°F 30.2°F 87% 29.57 in 5.0 miles ENE 3.5 mph - 0.05 in   Overcast
9:52 PM 34.0°F 32.0°F 92% 29.60 in 5.0 miles Calm Calm - 0.05 in   Overcast
10:13 PM 33.8°F 32.0°F 93% 29.57 in 4.0 miles Calm Calm - N/A   Overcast
10:52 PM 33.1°F 30.9°F 92% 29.62 in 4.0 miles WNW 4.6 mph - N/A   Overcast
11:22 PM 33.8°F 30.2°F 87% 29.58 in 2.5 miles WNW 3.5 mph - N/A   Overcast
11:30 PM 33.8°F 30.2°F 87% 29.58 in 0.8 miles Calm Calm - N/A   Overcast
11:37 PM 32.0°F 30.2°F 93% 29.58 in 0.5 miles Calm Calm - N/A Fog Fog
11:52 PM 33.1°F 30.9°F 92% 29.62 in 0.8 miles Calm Calm - N/A   Mist
11:59 PM 33.8°F 32.0°F 93% 29.59 in 2.0 miles Calm Calm - N/A   Overcast
Moon Phase
Dec. 11 Dec. 13 Dec. 20 Dec. 28 Jan. 04
Sunrise:07:34 AM (PST) Moon Rise:05:31 AM (PST)12/11
Sunset:04:07 PM (PST) Moon Set:02:53 PM (PST)12/11

Copyright © 2014 The Weather Underground, Inc.